Weather History for KAIT - December, 2012

Change the Weather History Date:

Saturday, December 22, 2012

  Actual Average Record
Temperature  
Mean Temperature 11 °F -  
Max Temperature 24 °F 20 °F 42 °F (2005)
Min Temperature -2 °F 1 °F -24 °F (1990)
Degree Days  
Heating Degree Days 54    
Moisture  
Dew Point 2 °F    
Average Humidity 72    
Maximum Humidity 79    
Minimum Humidity 59    
Precipitation  
Precipitation 0.00 in - - ()
Sea Level Pressure  
Sea Level Pressure 30.01 in    
Wind  
Wind Speed 2 mph (NNW)    
Max Wind Speed 18 mph    
Max Gust Speed 17 mph    
Visibility 9 miles    
Events Snow    
Averages and records for this station are not official NWS values.
T = Trace of Precipitation, MM = Missing Value Source: NWS Daily Summary

Daily Weather History Graph

Daily Weather History Graph

Search for Another Location

Airport or City:

Trip Planner

Search our weather history database for the weather conditions in past years. The results will help you decide how hot, cold, wet, or windy it might be!

Date:

Astronomy

Dec. 22, 2012 Rise Set
Actual Time 7:56 AM CST 4:30 PM CST
Civil Twilight 7:21 AM CST 5:05 PM CST
Nautical Twilight 6:42 AM CST 5:44 PM CST
Astronomical Twilight 6:06 AM CST 6:21 PM CST
Moon 12:58 PM CST (12/22) 2:31 AM CST (12/22)
Length of Visible Light 9h 44m
Length of Day
8h 34m
Waxing Gibbous, 74% of the Moon is Illuminated
Dec 22
Waxing Gibbous
Dec 28
Full
Jan 4
Last Quarter
Jan 11
New
Jan 18
First Quarter

Hourly Weather History & Observations

Time (CST) Temp. Windchill Dew Point Humidity Pressure Visibility Wind Dir Wind Speed Gust Speed Precip Events Conditions
12:13 AM 1.4 °F - -5.8 °F 72% 30.11 in 10.0 mi Calm Calm - N/A   Clear
12:32 AM -0.4 °F - -7.6 °F 72% 30.10 in 10.0 mi Calm Calm - N/A   Clear
12:52 AM -0.4 °F - -7.6 °F 72% 30.10 in 10.0 mi Calm Calm - N/A   Clear
1:13 AM -0.4 °F - -9.4 °F 66% 30.09 in 10.0 mi Calm Calm - N/A   Clear
1:32 AM -0.4 °F - -7.6 °F 72% 30.09 in 10.0 mi Calm Calm - N/A   Clear
1:52 AM -0.4 °F - -7.6 °F 72% 30.09 in 10.0 mi Calm Calm - N/A   Clear
2:13 AM -0.4 °F - -7.6 °F 72% 30.09 in 10.0 mi Calm Calm - N/A   Clear
2:32 AM -2.2 °F - -9.4 °F 71% 30.08 in 10.0 mi Calm Calm - N/A   Clear
3:13 AM -0.4 °F - -7.6 °F 72% 30.07 in 10.0 mi Calm Calm - N/A   Clear
3:32 AM -0.4 °F - -7.6 °F 72% 30.06 in 10.0 mi Calm Calm - N/A   Clear
3:52 AM -2.2 °F - -9.4 °F 71% 30.04 in 10.0 mi Calm Calm - N/A   Clear
4:13 AM -2.2 °F - -9.4 °F 71% 30.03 in 10.0 mi Calm Calm - N/A   Clear
4:32 AM -2.2 °F - -7.6 °F 78% 30.02 in 10.0 mi Calm Calm - N/A   Clear
4:52 AM -0.4 °F - -7.6 °F 72% 30.01 in 10.0 mi Calm Calm - N/A   Clear
5:13 AM -0.4 °F - -7.6 °F 72% 30.00 in 10.0 mi Calm Calm - N/A   Unknown
5:32 AM -0.4 °F - -7.6 °F 72% 30.00 in 10.0 mi Calm Calm - N/A   Unknown
5:52 AM 1.4 °F - -5.8 °F 72% 29.99 in 10.0 mi Calm Calm - N/A   Clear
6:13 AM -0.4 °F - -7.6 °F 72% 29.99 in 10.0 mi Calm Calm - N/A   Clear
6:32 AM 1.4 °F - -5.8 °F 72% 29.99 in 10.0 mi Calm Calm - N/A   Clear
6:52 AM 1.4 °F - -5.8 °F 72% 29.99 in 10.0 mi Calm Calm - N/A   Clear
7:13 AM 1.4 °F - -5.8 °F 72% 29.99 in 10.0 mi Calm Calm - N/A   Unknown
7:32 AM 1.4 °F - -5.8 °F 72% 29.99 in 10.0 mi Calm Calm - N/A   Clear
7:52 AM 1.4 °F - -5.8 °F 72% 30.00 in 10.0 mi Calm Calm - N/A   Clear
8:13 AM 1.4 °F - -5.8 °F 72% 29.99 in 10.0 mi Calm Calm - N/A   Clear
8:32 AM 1.4 °F - -5.8 °F 72% 29.98 in 10.0 mi Calm Calm - N/A   Clear
8:53 AM 1.4 °F - -5.8 °F 72% 29.98 in 10.0 mi Calm Calm - N/A   Clear
9:12 AM 1.4 °F - -4.0 °F 78% 29.98 in 10.0 mi Calm Calm - N/A   Clear
9:32 AM 3.2 °F - -4.0 °F 72% 29.99 in 10.0 mi Calm Calm - N/A   Clear
9:53 AM 5.0 °F - -2.2 °F 72% 30.00 in 10.0 mi Calm Calm - N/A   Clear
10:12 AM 6.8 °F - -0.4 °F 72% 30.00 in 10.0 mi Calm Calm - N/A   Clear
10:32 AM 10.4 °F - 3.2 °F 73% 30.00 in 10.0 mi Calm Calm - N/A   Clear
10:53 AM 14.0 °F - 8.6 °F 79% 29.99 in 10.0 mi Calm Calm - N/A   Clear
11:12 AM 15.8 °F 8.6 °F 8.6 °F 73% 29.98 in 10.0 mi West 4.6 mph - N/A   Clear
11:32 AM 15.8 °F - 8.6 °F 73% 29.97 in 10.0 mi Calm Calm - N/A   Clear
11:53 AM 17.6 °F - 8.6 °F 68% 29.96 in 10.0 mi Calm Calm - N/A   Clear
12:12 PM 15.8 °F 8.6 °F 8.6 °F 73% 29.96 in 10.0 mi North 4.6 mph - N/A   Clear
12:32 PM 17.6 °F - 8.6 °F 68% 29.96 in 10.0 mi Calm Calm - N/A   Clear
12:53 PM 19.4 °F - 8.6 °F 63% 29.95 in 10.0 mi Calm Calm - N/A   Clear
1:12 PM 21.2 °F 14.9 °F 10.4 °F 63% 29.94 in 10.0 mi NNW 4.6 mph - N/A   Clear
1:53 PM 21.2 °F 14.9 °F 10.4 °F 63% 29.94 in 10.0 mi NNW 4.6 mph - N/A   Clear
2:12 PM 23.0 °F 15.8 °F 12.2 °F 63% 29.94 in 10.0 mi WNW 5.8 mph - N/A   Clear
2:32 PM 23.0 °F 18.4 °F 12.2 °F 63% 29.94 in 10.0 mi NW 3.5 mph - N/A   Clear
2:53 PM 24.8 °F 20.5 °F 12.2 °F 59% 29.94 in 10.0 mi NW 3.5 mph - N/A   Clear
3:12 PM 24.8 °F 17.9 °F 14.0 °F 64% 29.95 in 10.0 mi NW 5.8 mph - N/A   Clear
3:33 PM 23.0 °F 14.7 °F 14.0 °F 68% 29.95 in 10.0 mi NNW 6.9 mph - N/A   Clear
3:53 PM 21.2 °F 14.9 °F 12.2 °F 68% 29.97 in 10.0 mi NNW 4.6 mph - N/A   Clear
4:12 PM 21.2 °F 14.9 °F 12.2 °F 68% 29.97 in 10.0 mi NW 4.6 mph - N/A   Clear
4:33 PM 19.4 °F 12.8 °F 12.2 °F 74% 29.97 in 10.0 mi NW 4.6 mph - N/A   Clear
4:53 PM 19.4 °F 11.5 °F 12.2 °F 74% 29.98 in 10.0 mi NW 5.8 mph - N/A   Clear
5:12 PM 19.4 °F 7.9 °F 12.2 °F 74% 29.99 in 10.0 mi NNW 10.4 mph - N/A   Mostly Cloudy
5:33 PM 19.4 °F 7.9 °F 12.2 °F 74% 30.00 in 10.0 mi NNW 10.4 mph - N/A   Mostly Cloudy
5:53 PM 17.6 °F 7.3 °F 10.4 °F 73% 30.01 in 10.0 mi NNW 8.1 mph - N/A   Overcast
6:12 PM 17.6 °F 6.4 °F 10.4 °F 73% 30.01 in 10.0 mi NNW 9.2 mph - N/A   Overcast
6:33 PM 17.6 °F 4.3 °F 10.4 °F 73% 30.02 in 10.0 mi NNW 12.7 mph - N/A   Overcast
6:53 PM 15.8 °F 2.7 °F 10.4 °F 79% 30.02 in 10.0 mi NNW 11.5 mph 16.1 mph N/A   Overcast
7:12 PM 15.8 °F 6.1 °F 8.6 °F 73% 30.02 in 7.0 mi NNW 6.9 mph - N/A Snow Light Snow
7:33 PM 15.8 °F 0.9 °F 8.6 °F 73% 30.03 in 10.0 mi NNW 15.0 mph - N/A Snow Light Snow
7:53 PM 14.0 °F -2.0 °F 6.8 °F 73% 30.03 in 7.0 mi North 16.1 mph - N/A Snow Light Snow
8:12 PM 14.0 °F 2.9 °F 6.8 °F 73% 30.04 in 5.0 mi NNW 8.1 mph 17.3 mph N/A Snow Light Snow
8:33 PM 12.2 °F -1.0 °F 6.8 °F 79% 30.05 in 7.0 mi NNW 10.4 mph 16.1 mph N/A Snow Light Snow
8:53 PM 12.2 °F -5.3 °F 5.0 °F 73% 30.06 in 7.0 mi North 18.4 mph - N/A Snow Light Snow
9:12 PM 12.2 °F -1.8 °F 5.0 °F 73% 30.06 in 10.0 mi North 11.5 mph - N/A Snow Light Snow
9:33 PM 12.2 °F -0.2 °F 5.0 °F 73% 30.05 in 7.0 mi North 9.2 mph - N/A Snow Light Snow
9:52 PM 12.2 °F -0.2 °F 5.0 °F 73% 30.06 in 7.0 mi North 9.2 mph - N/A Snow Light Snow
10:12 PM 12.2 °F -1.0 °F 5.0 °F 73% 30.06 in 5.0 mi North 10.4 mph - N/A Snow Light Snow
10:33 PM 12.2 °F -3.1 °F 5.0 °F 73% 30.05 in 10.0 mi North 13.8 mph - N/A Snow Light Snow
10:52 PM 12.2 °F -0.2 °F 5.0 °F 73% 30.05 in 7.0 mi North 9.2 mph - N/A Snow Light Snow
11:12 PM 12.2 °F -1.8 °F 5.0 °F 73% 30.07 in 5.0 mi North 11.5 mph - N/A Snow Light Snow
11:33 PM 10.4 °F -5.4 °F 3.2 °F 73% 30.07 in 7.0 mi North 13.8 mph - N/A Snow Light Snow
11:52 PM 10.4 °F -4.8 °F 3.2 °F 73% 30.07 in 10.0 mi North 12.7 mph - N/A Snow Light Snow